timestamp,wind_dir_avg,wind_spd_avg,wind_spd_max_dir,wind_spd_gust,battery_voltage,lat,long
2019-12-07 00:04:01+00:00,262.0,9.32,264.0,10.45,12.65,47.59359,-54.27349
2019-12-07 00:14:01+00:00,258.0,9.63,257.0,10.63,12.57,47.59359,-54.27349
2019-12-07 00:24:01+00:00,268.0,10.62,270.0,11.81,12.57,47.59359,-54.27349
2019-12-07 00:34:01+00:00,270.0,9.58,269.0,10.69,12.57,47.59359,-54.27349
2019-12-07 00:44:01+00:00,288.0,9.47,284.0,10.61,12.57,47.59359,-54.27349
2019-12-07 00:54:01+00:00,275.0,8.63,274.0,9.37,12.57,47.59359,-54.27349
2019-12-07 01:04:01+00:00,271.0,8.38,278.0,9.38,12.57,47.59359,-54.27349
2019-12-07 01:14:01+00:00,268.0,9.4,266.0,11.25,12.57,47.59359,-54.27349
2019-12-07 01:24:01+00:00,267.0,10.23,263.0,11.47,12.57,47.59359,-54.27349
2019-12-07 01:34:01+00:00,284.0,10.25,281.0,14.41,12.57,47.59359,-54.27349
2019-12-07 01:44:01+00:00,275.0,10.53,276.0,11.96,12.57,47.59359,-54.27349
2019-12-07 01:54:01+00:00,273.0,10.16,273.0,11.4,12.57,47.59359,-54.27349
2019-12-07 02:04:01+00:00,282.0,9.97,282.0,12.36,12.57,47.59359,-54.27349
2019-12-07 02:14:01+00:00,274.0,9.21,274.0,10.24,12.57,47.59359,-54.27349
2019-12-07 02:24:01+00:00,264.0,10.79,266.0,12.5,12.57,47.59359,-54.27349
2019-12-07 02:34:01+00:00,266.0,10.35,271.0,12.2,12.57,47.59359,-54.27349
2019-12-07 02:44:01+00:00,268.0,11.87,266.0,13.06,12.57,47.59359,-54.27349
2019-12-07 02:54:01+00:00,272.0,11.81,272.0,13.67,12.57,47.59359,-54.27349
2019-12-07 03:04:01+00:00,275.0,12.04,279.0,13.4,12.57,47.59359,-54.27349
2019-12-07 03:14:01+00:00,262.0,10.16,250.0,11.84,12.57,47.59359,-54.27349
2019-12-07 03:24:01+00:00,272.0,9.91,270.0,11.56,12.57,47.59359,-54.27349
2019-12-07 03:34:01+00:00,262.0,9.85,262.0,12.05,12.57,47.59359,-54.27349
2019-12-07 03:44:01+00:00,270.0,10.47,268.0,11.89,12.57,47.59359,-54.27349
2019-12-07 03:54:01+00:00,266.0,10.25,267.0,11.81,12.57,47.59359,-54.27349
2019-12-07 04:04:01+00:00,262.0,10.65,261.0,11.86,12.57,47.59359,-54.27349
2019-12-07 04:14:01+00:00,257.0,10.08,258.0,11.91,12.57,47.59359,-54.27349
2019-12-07 04:24:01+00:00,260.0,11.51,261.0,12.96,12.57,47.59359,-54.27349
2019-12-07 04:34:01+00:00,262.0,11.66,264.0,13.07,12.57,47.59359,-54.27349
2019-12-07 04:44:01+00:00,261.0,12.1,261.0,14.26,12.57,47.59359,-54.27349
2019-12-07 04:54:01+00:00,259.0,10.57,261.0,11.9,12.57,47.59359,-54.27349
2019-12-07 05:04:01+00:00,258.0,10.57,263.0,12.49,12.57,47.59359,-54.27349
2019-12-07 05:14:01+00:00,264.0,10.8,264.0,12.34,12.49,47.59359,-54.27349
2019-12-07 05:24:01+00:00,263.0,10.86,267.0,11.67,12.49,47.59359,-54.27349
2019-12-07 05:34:01+00:00,262.0,9.89,246.0,11.02,12.49,47.59359,-54.27349
2019-12-07 05:44:01+00:00,257.0,10.06,243.0,12.06,12.49,47.59359,-54.27349
2019-12-07 05:54:01+00:00,259.0,10.75,267.0,12.66,12.49,47.59359,-54.27349
2019-12-07 06:04:01+00:00,252.0,9.28,248.0,10.76,12.49,47.59359,-54.27349
2019-12-07 06:14:01+00:00,251.0,9.36,251.0,10.89,12.49,47.59359,-54.27349
2019-12-07 06:24:01+00:00,260.0,8.74,258.0,9.66,12.49,47.59359,-54.27349
2019-12-07 06:34:01+00:00,266.0,8.09,274.0,9.65,12.49,47.59359,-54.27349
2019-12-07 06:44:01+00:00,267.0,8.78,268.0,9.86,12.49,47.59359,-54.27349
2019-12-07 06:54:01+00:00,259.0,11.44,257.0,12.84,12.49,47.59359,-54.27349
2019-12-07 07:04:01+00:00,255.0,10.57,256.0,12.31,12.49,47.59359,-54.27349
2019-12-07 07:14:01+00:00,259.0,9.9,267.0,11.08,12.49,47.59359,-54.27349
2019-12-07 07:24:01+00:00,262.0,11.53,262.0,12.57,12.49,47.59359,-54.27349
2019-12-07 07:34:01+00:00,258.0,10.69,256.0,11.81,12.49,47.59359,-54.27349
2019-12-07 07:44:01+00:00,257.0,11.14,258.0,12.46,12.49,47.59359,-54.27349
2019-12-07 07:54:01+00:00,259.0,11.42,257.0,12.41,12.49,47.59359,-54.27349
2019-12-07 08:04:01+00:00,260.0,12.57,264.0,13.98,12.49,47.59359,-54.27349
2019-12-07 08:14:01+00:00,260.0,10.48,261.0,13.37,12.49,47.59359,-54.27349
2019-12-07 08:24:01+00:00,262.0,12.18,260.0,13.06,12.49,47.59359,-54.27349
2019-12-07 08:34:01+00:00,263.0,10.72,265.0,12.33,12.49,47.59359,-54.27349
2019-12-07 08:44:01+00:00,260.0,9.8,258.0,10.75,12.49,47.59359,-54.27349
2019-12-07 08:54:01+00:00,264.0,9.84,262.0,12.35,12.49,47.59359,-54.27349
2019-12-07 09:04:01+00:00,257.0,10.03,257.0,11.76,12.49,47.59359,-54.27349
2019-12-07 09:14:01+00:00,263.0,9.43,264.0,11.29,12.41,47.59359,-54.27349
2019-12-07 09:24:01+00:00,269.0,9.15,269.0,10.04,12.41,47.59359,-54.27349
2019-12-07 09:34:01+00:00,269.0,8.16,261.0,9.7,12.41,47.59359,-54.27349
2019-12-07 09:44:01+00:00,262.0,8.56,263.0,9.89,12.41,47.59359,-54.27349
2019-12-07 09:54:01+00:00,254.0,7.59,259.0,8.79,12.41,47.59359,-54.27349
2019-12-07 10:04:01+00:00,254.0,9.13,253.0,11.08,12.41,47.59359,-54.27349
2019-12-07 10:14:01+00:00,257.0,9.49,260.0,10.45,12.41,47.59359,-54.27349
2019-12-07 10:24:01+00:00,256.0,9.05,255.0,10.6,12.41,47.59359,-54.27349
2019-12-07 10:34:01+00:00,261.0,8.99,263.0,10.44,12.41,47.59359,-54.27349
2019-12-07 10:44:01+00:00,270.0,7.39,264.0,8.03,12.41,47.59359,-54.27349
2019-12-07 10:54:01+00:00,255.0,7.34,253.0,8.26,12.41,47.59359,-54.27349
2019-12-07 11:04:01+00:00,262.0,7.34,266.0,8.47,12.41,47.59359,-54.27349
2019-12-07 11:14:01+00:00,259.0,8.23,260.0,9.03,12.41,47.59359,-54.27349
2019-12-07 11:24:01+00:00,253.0,8.83,253.0,10.11,12.41,47.59359,-54.27349
2019-12-07 11:34:01+00:00,257.0,8.64,250.0,9.63,12.41,47.59359,-54.27349
2019-12-07 11:44:01+00:00,258.0,7.63,258.0,8.57,12.41,47.59359,-54.27349
2019-12-07 11:54:01+00:00,256.0,8.02,255.0,8.63,12.41,47.59359,-54.27349
2019-12-07 12:04:01+00:00,254.0,8.04,259.0,8.74,12.41,47.59359,-54.27349
2019-12-07 12:14:01+00:00,254.0,7.39,256.0,8.22,12.65,47.59359,-54.27349
2019-12-07 12:24:01+00:00,254.0,6.16,247.0,7.17,12.65,47.59359,-54.27349
2019-12-07 12:34:01+00:00,257.0,5.73,256.0,6.52,12.65,47.59359,-54.27349
2019-12-07 12:44:01+00:00,248.0,5.63,252.0,6.83,12.65,47.59359,-54.27349
2019-12-07 12:54:01+00:00,250.0,6.05,247.0,7.0,12.65,47.59359,-54.27349
2019-12-07 13:04:01+00:00,253.0,6.95,258.0,7.56,12.65,47.59359,-54.27349
2019-12-07 13:14:01+00:00,259.0,6.63,254.0,7.64,13.21,47.59359,-54.27349
2019-12-07 13:24:01+00:00,264.0,7.17,264.0,8.57,13.21,47.59359,-54.27349
2019-12-07 13:34:01+00:00,268.0,6.95,266.0,7.7,13.21,47.59359,-54.27349
2019-12-07 13:44:01+00:00,276.0,6.24,281.0,7.3,13.21,47.59359,-54.27349
2019-12-07 13:54:01+00:00,275.0,6.92,274.0,8.03,13.21,47.59359,-54.27349
2019-12-07 14:04:01+00:00,276.0,6.45,276.0,7.07,13.21,47.59359,-54.27349
2019-12-07 14:14:01+00:00,267.0,6.31,271.0,7.25,13.29,47.59359,-54.27349
2019-12-07 14:24:01+00:00,264.0,6.22,274.0,7.29,13.29,47.59359,-54.27349
2019-12-07 14:34:01+00:00,264.0,6.76,266.0,7.42,13.29,47.59359,-54.27349
2019-12-07 14:44:01+00:00,264.0,7.86,267.0,9.33,13.29,47.59359,-54.27349
2019-12-07 14:54:01+00:00,265.0,4.82,257.0,5.96,13.29,47.59359,-54.27349
2019-12-07 15:04:01+00:00,260.0,4.02,263.0,4.85,13.29,47.59359,-54.27349
2019-12-07 15:14:01+00:00,256.0,3.92,256.0,4.53,13.05,47.59359,-54.27349
2019-12-07 15:24:01+00:00,251.0,4.43,246.0,5.08,13.05,47.59359,-54.27349
2019-12-07 15:34:01+00:00,253.0,4.3,254.0,4.72,13.05,47.59359,-54.27349
2019-12-07 15:44:01+00:00,252.0,3.99,251.0,4.51,13.05,47.59359,-54.27349
2019-12-07 15:54:01+00:00,247.0,3.76,239.0,4.3,13.05,47.59359,-54.27349
2019-12-07 16:04:01+00:00,252.0,3.25,254.0,3.59,13.05,47.59359,-54.27349
2019-12-07 16:14:01+00:00,259.0,1.69,265.0,2.0,12.89,47.59359,-54.27349
2019-12-07 16:24:01+00:00,272.0,1.86,273.0,2.13,12.89,47.59359,-54.27349
2019-12-07 16:34:01+00:00,309.0,1.74,310.0,2.17,12.89,47.59359,-54.27349
2019-12-07 16:44:01+00:00,338.0,1.37,345.0,1.64,12.89,47.59359,-54.27349
2019-12-07 16:54:01+00:00,3.0,1.48,7.0,1.94,12.89,47.59359,-54.27349
2019-12-07 17:04:01+00:00,17.0,2.07,14.0,2.56,12.89,47.59359,-54.27349
2019-12-07 17:14:01+00:00,30.0,2.12,27.0,2.53,12.89,47.59359,-54.27349
2019-12-07 17:24:01+00:00,46.0,3.11,53.0,3.52,12.89,47.59359,-54.27349
2019-12-07 17:34:01+00:00,56.0,4.42,57.0,5.08,12.89,47.59359,-54.27349
2019-12-07 17:44:01+00:00,70.0,5.07,74.0,5.58,12.89,47.59359,-54.27349
2019-12-07 17:54:01+00:00,74.0,6.25,73.0,6.77,12.89,47.59359,-54.27349
2019-12-07 18:04:01+00:00,82.0,6.1,82.0,6.85,12.89,47.59359,-54.27349
2019-12-07 18:14:01+00:00,77.0,7.27,71.0,8.07,12.73,47.59359,-54.27349
2019-12-07 18:24:01+00:00,79.0,7.49,75.0,8.08,12.73,47.59359,-54.27349
2019-12-07 18:34:01+00:00,315.0,0.01,0.0,0.0,12.73,47.59359,-54.27349
2019-12-07 18:44:01+00:00,37.0,6.33,30.0,8.1,12.73,47.59359,-54.27349
2019-12-07 18:54:01+00:00,50.0,6.86,57.0,8.18,12.73,47.59359,-54.27349
2019-12-07 19:04:01+00:00,40.0,8.4,39.0,9.28,12.73,47.59359,-54.27349
2019-12-07 19:14:01+00:00,32.0,7.56,32.0,8.43,12.65,47.59359,-54.27349
2019-12-07 19:24:01+00:00,315.0,0.01,0.0,0.0,12.65,47.59359,-54.27349
2019-12-07 19:34:01+00:00,315.0,0.01,0.0,0.0,12.65,47.59359,-54.27349
2019-12-07 19:44:01+00:00,315.0,0.01,0.0,0.0,12.65,47.59359,-54.27349
2019-12-07 19:54:01+00:00,315.0,0.01,0.0,0.0,12.65,47.59359,-54.27349
2019-12-07 20:04:01+00:00,315.0,0.01,0.0,0.0,12.65,47.59359,-54.27349
2019-12-07 20:14:01+00:00,315.0,0.01,0.0,0.0,12.57,47.59359,-54.27349
2019-12-07 20:24:01+00:00,315.0,0.01,0.0,0.0,12.57,47.59359,-54.27349
2019-12-07 20:34:01+00:00,315.0,0.01,0.0,0.0,12.57,47.59359,-54.27349
2019-12-07 20:44:01+00:00,352.0,1.46,355.0,5.46,12.57,47.59359,-54.27349
2019-12-07 20:54:01+00:00,356.0,7.0,356.0,10.8,12.57,47.59359,-54.27349
2019-12-07 21:04:01+00:00,354.0,5.85,356.0,6.59,12.57,47.59359,-54.27349
2019-12-07 21:14:01+00:00,198.0,1.07,200.0,2.74,12.49,47.59359,-54.27349
2019-12-07 21:24:01+00:00,357.0,3.16,358.0,4.96,12.49,47.59359,-54.27349
2019-12-07 21:34:01+00:00,331.0,2.46,351.0,4.55,12.49,47.59359,-54.27349
2019-12-07 21:44:01+00:00,341.0,2.04,359.0,3.95,12.49,47.59359,-54.27349
2019-12-07 21:54:01+00:00,314.0,5.7,317.0,6.43,12.49,47.59359,-54.27349
2019-12-07 22:04:01+00:00,309.0,5.54,297.0,7.48,12.49,47.59359,-54.27349
2019-12-07 22:14:01+00:00,300.0,4.63,292.0,5.74,12.49,47.59359,-54.27349
2019-12-07 22:24:01+00:00,306.0,6.29,303.0,7.77,12.49,47.59359,-54.27349
2019-12-07 22:34:01+00:00,301.0,7.36,303.0,9.28,12.49,47.59359,-54.27349
2019-12-07 22:44:01+00:00,293.0,7.36,291.0,8.46,12.49,47.59359,-54.27349
2019-12-07 22:54:01+00:00,285.0,8.26,286.0,8.28,12.49,47.59359,-54.27349
2019-12-07 23:04:01+00:00,326.0,9.89,336.0,12.79,12.49,47.59359,-54.27349
2019-12-07 23:14:01+00:00,294.0,7.76,285.0,9.66,12.41,47.59359,-54.27349
2019-12-07 23:24:01+00:00,271.0,6.04,314.0,8.88,12.41,47.59359,-54.27349
2019-12-07 23:34:01+00:00,246.0,7.6,228.0,10.55,12.41,47.59359,-54.27349
2019-12-07 23:44:01+00:00,287.0,6.53,285.0,8.12,12.41,47.59359,-54.27349
2019-12-07 23:54:01+00:00,326.0,11.65,340.0,16.89,12.41,47.59359,-54.27349
